Theta_e
357 359 359 366 366 367 367 364 360 372 364 361 367 369 361 363 350 343 341 346 346 350 345 346 355 358 362 361 360 358 355 357 362 360 357 357 361 352 346 346 345 345 346 346 347 348 349 349 349 350 351 350 351 353 353 352 352 352 352 352 353 353 353 350 348 347 348 349 348 349 350 351 352 353
365 361 363 361 363 367 364 365 358 373 372 371 367 364 365 365 352 350 345 345 350 346 347 344 358 372 356 370 360 362 361 356 361 360 359 358 358 349 345 345 344 344 344 344 343 345 346 347 347 346 346 347 348 349 350 350 350 350 350 350 351 351 352 349 348 348 348 348 349 349 349 351 351 351
365 366 362 372 370 372 368 370 362 370 366 368 370 368 365 360 356 353 350 343 354 356 347 349 354 359 366 353 355 356 358 358 356 357 358 359 354 350 349 345 344 343 342 341 340 340 341 342 342 342 342 343 344 345 346 347 348 349 348 348 348 348 348 348 346 347 347 347 348 348 349 350 350 350
364 365 363 367 368 372 373 369 364 371 372 369 366 364 366 365 364 360 354 347 345 356 350 349 350 350 359 358 357 356 361 363 355 355 357 359 354 354 354 350 343 342 340 340 339 338 337 337 338 339 341 342 344 345 345 344 345 346 345 345 345 344 345 344 344 344 345 345 346 346 347 347 349 349
363 365 365 366 368 370 367 367 364 363 365 366 366 368 370 365 362 359 355 349 348 354 359 356 354 355 358 355 364 364 363 363 364 355 360 362 359 358 357 356 348 342 340 338 338 337 337 336 336 337 339 340 342 344 345 345 343 342 341 341 340 339 341 341 340 342 343 343 343 344 344 346 347 347
364 367 367 366 366 370 366 363 360 361 358 359 359 362 361 362 363 363 357 354 351 350 358 359 362 358 360 355 363 357 357 356 360 363 362 362 360 358 357 357 358 348 342 338 336 336 336 335 335 336 337 338 339 340 341 341 339 338 338 337 335 335 335 336 337 339 339 340 342 342 343 343 344 345
365 364 364 362 363 363 363 363 361 359 359 358 359 360 360 360 360 364 364 359 354 353 354 361 356 356 361 360 359 363 363 363 365 361 360 358 360 361 361 361 360 350 345 340 337 336 335 335 335 334 335 336 335 336 336 334 334 333 333 331 333 334 334 333 335 337 337 339 340 341 341 341 342 342
364 363 363 361 361 362 362 363 362 362 362 362 364 363 366 368 363 362 365 365 359 357 354 358 358 359 357 357 359 360 360 359 359 362 363 365 362 361 362 360 359 354 346 342 338 337 336 335 334 333 333 333 331 331 330 329 330 329 329 329 329 330 330 330 331 334 333 334 335 337 339 340 340 338
365 364 362 362 362 364 361 362 360 360 362 363 361 361 362 362 364 364 364 364 364 360 357 357 361 364 362 363 363 364 360 361 362 363 362 360 360 361 363 362 362 351 346 345 342 339 337 336 335 333 332 332 331 330 329 328 328 327 327 326 327 327 327 328 327 328 329 329 330 330 332 335 337 337
365 364 363 362 363 361 360 359 359 362 361 363 362 361 362 364 364 363 363 364 362 360 358 357 357 362 361 360 362 366 367 364 362 363 364 366 366 365 364 363 364 362 361 359 360 349 341 337 332 333 334 333 331 330 329 329 328 326 325 322 321 323 324 325 326 326 326 326 327 329 330 331 332 333
364 364 363 363 363 361 361 359 359 362 363 362 361 363 363 362 363 363 363 363 362 361 359 360 360 360 363 363 360 366 369 367 364 361 361 361 364 365 365 365 368 364 361 356 350 351 350 347 348 338 332 330 329 329 329 328 327 326 324 322 321 321 320 320 322 323 323 324 325 324 324 326 330 332
362 364 363 361 361 362 363 362 362 362 362 363 360 362 364 365 364 361 361 361 361 359 359 358 358 360 361 364 365 365 364 362 363 365 362 358 360 363 366 364 363 366 365 362 361 354 351 349 346 337 336 336 334 331 331 332 332 331 328 325 326 325 322 321 321 321 320 320 320 321 322 321 324 327
362 362 361 361 360 363 368 364 363 362 363 362 362 363 366 366 365 365 364 363 363 362 361 359 361 360 359 360 360 358 359 358 357 364 365 360 359 361 362 366 368 363 360 361 361 360 364 362 361 361 361 362 356 354 346 342 340 335 329 326 327 327 326 324 323 322 321 320 319 319 319 320 321 323
361 360 359 356 368 365 365 358 355 353 355 360 361 365 369 367 366 365 364 364 363 363 360 359 358 356 356 356 357 359 360 363 366 362 364 361 363 362 360 361 364 367 363 361 361 364 365 362 361 361 360 361 361 360 360 358 352 341 332 329 327 327 326 324 324 323 322 320 319 318 317 318 320 320
358 358 360 359 363 368 370 362 352 350 348 350 351 354 360 372 374 367 364 363 363 361 359 360 359 356 355 356 358 359 358 360 361 365 363 360 359 357 354 351 359 373 369 362 359 358 362 361 357 358 359 361 361 360 359 346 340 333 331 329 327 326 326 326 326 325 322 321 319 318 317 317 318 318
359 357 356 356 356 358 361 367 364 354 348 345 346 346 347 348 348 353 363 364 363 363 361 359 358 357 356 358 361 360 359 365 363 364 362 360 358 356 355 355 354 366 366 358 354 353 359 362 360 358 359 360 360 359 344 335 334 332 330 330 329 328 326 326 326 327 326 324 323 321 320 319 319 319
358 358 357 355 354 350 369 366 367 365 360 345 340 343 345 345 343 337 336 340 354 356 355 354 354 356 358 357 360 365 367 366 360 361 359 359 359 359 356 356 357 359 362 357 354 352 356 360 357 356 359 360 358 353 342 336 332 331 328 327 327 326 326 326 326 325 325 324 322 321 320 318 318 318
358 360 359 358 356 355 358 365 363 368 366 363 358 355 356 357 356 346 336 334 333 340 349 350 348 353 357 355 360 366 366 360 357 357 355 360 358 357 355 357 357 359 361 356 354 351 355 359 358 354 354 353 350 350 341 332 331 328 326 325 325 325 325 325 325 324 323 322 321 319 317 316 315 316
361 361 361 361 359 359 359 359 365 366 369 370 368 364 360 359 359 360 360 356 353 351 348 350 351 353 355 356 357 358 360 360 360 361 363 363 360 359 359 357 357 357 360 359 359 351 353 355 350 350 349 347 344 345 336 333 328 329 327 327 327 326 325 324 324 322 321 321 320 318 317 316 314 312
365 364 363 362 361 360 362 361 350 357 364 367 368 369 369 367 366 364 363 350 351 360 358 355 355 356 357 349 358 360 363 368 371 367 364 363 359 355 352 350 354 353 359 359 348 344 345 352 345 343 344 344 341 343 344 336 332 329 328 328 327 326 321 322 322 322 321 321 320 318 316 312 311 310
370 368 366 367 364 363 364 356 340 339 357 363 365 366 366 368 369 368 370 347 338 338 336 336 337 337 339 338 336 337 335 348 355 360 355 352 354 352 349 350 350 351 350 350 345 344 341 344 341 339 342 342 339 341 343 345 333 329 326 327 327 324 321 322 323 323 322 321 320 318 317 314 311 311
365 368 372 373 368 367 367 349 337 334 350 362 363 363 364 365 365 366 367 368 364 334 330 331 332 333 336 338 336 333 331 328 341 354 350 354 356 352 351 347 348 349 351 346 345 343 341 341 341 337 338 339 344 342 343 341 339 334 330 327 326 325 323 323 322 323 321 320 319 317 316 313 311 316
361 362 365 366 361 364 360 343 335 330 348 363 364 363 362 359 359 362 366 367 365 366 358 355 354 352 349 349 352 353 337 333 342 352 355 357 355 351 350 348 348 344 349 341 348 339 339 336 339 338 334 331 336 343 341 340 340 339 341 340 339 326 326 326 325 323 323 319 315 316 315 309 313 322
362 362 362 358 336 333 334 334 331 325 328 360 366 365 362 359 359 363 366 366 366 367 367 366 363 359 362 362 361 360 360 356 353 352 355 357 357 355 352 352 348 343 345 345 346 339 341 339 335 340 336 330 327 333 337 337 337 339 339 337 337 331 331 329 328 327 324 323 315 314 313 308 314 325
361 362 363 363 345 329 326 325 325 320 319 335 365 367 364 363 371 362 369 374 369 370 369 369 370 372 367 367 366 365 365 363 362 360 357 360 360 362 356 350 348 345 344 346 338 340 339 338 336 336 335 334 332 331 332 334 336 336 337 337 335 332 331 331 329 333 326 328 316 310 310 308 311 324
361 362 365 365 352 329 325 322 320 317 317 319 351 365 343 342 337 365 368 367 367 365 364 364 363 365 366 364 364 364 364 359 360 353 362 361 350 353 356 351 346 342 342 350 337 345 340 338 338 335 333 331 330 330 328 329 333 335 336 335 329 329 328 328 330 333 335 336 341 323 320 309 310 313
362 365 365 367 356 329 320 318 318 319 320 322 338 331 333 334 333 349 359 361 362 362 360 360 359 361 363 361 359 359 359 361 356 354 350 348 354 353 353 359 354 349 350 349 350 348 344 341 341 335 331 331 328 328 327 326 329 332 330 327 326 326 327 328 328 329 330 331 334 314 310 308 310 312
365 365 366 363 340 323 314 314 317 319 321 335 325 321 326 329 339 354 356 355 357 355 354 352 353 356 359 359 358 358 358 351 354 350 353 353 356 354 352 352 352 352 350 349 347 346 347 341 338 337 334 331 327 325 325 330 329 327 324 324 325 324 325 328 327 328 328 329 330 333 333 322 319 317
366 329 320 325 326 319 313 314 317 319 320 319 323 322 324 342 348 350 352 353 355 353 351 351 353 355 358 359 359 363 354 351 351 354 353 356 353 352 352 352 351 349 349 345 347 352 341 340 337 337 334 333 329 329 330 326 326 323 322 320 318 321 324 327 327 325 325 326 327 332 332 328 323 322
324 319 318 315 315 318 322 331 336 340 340 324 323 327 333 344 347 350 351 352 352 351 351 352 353 355 358 359 362 354 353 350 351 351 350 348 346 347 349 348 348 350 348 348 346 340 342 340 339 336 333 333 333 331 328 325 322 321 321 320 320 322 325 325 324 324 324 324 328 327 328 329 326 324
344 335 343 351 340 337 329 338 343 343 341 333 331 334 340 346 350 351 352 353 352 351 353 353 355 357 360 352 350 351 351 349 349 350 348 347 346 348 347 343 342 343 347 349 346 339 340 341 341 338 332 333 334 330 328 327 321 319 319 320 320 317 322 324 323 322 322 324 327 325 324 324 326 327
356 358 336 334 353 351 348 353 358 359 354 347 341 343 342 346 350 352 353 357 356 357 357 357 359 358 353 347 351 347 348 347 348 347 344 342 344 344 345 341 339 344 344 348 340 342 344 342 342 339 339 335 329 327 327 326 321 319 318 319 321 322 323 321 321 321 322 323 324 321 321 321 321 323
354 357 360 356 358 358 354 354 357 358 358 356 356 355 353 352 353 353 352 352 353 357 359 358 358 350 349 351 347 347 345 348 345 344 343 344 344 345 343 339 339 337 337 340 341 339 343 344 345 341 336 331 329 327 324 321 321 320 317 318 320 321 321 321 321 320 321 321 320 320 318 319 320 321
352 353 353 355 354 355 354 354 354 354 356 357 356 356 345 354 353 352 352 353 354 357 358 359 356 353 349 345 345 344 343 345 343 340 337 342 343 340 339 338 338 336 336 337 337 341 341 343 342 336 331 326 324 322 322 322 319 319 318 318 320 319 320 320 320 320 320 319 318 317 316 316 318 320
349 353 352 352 353 352 353 353 353 355 355 353 355 354 354 354 352 349 354 355 353 354 356 356 354 353 350 344 344 341 341 342 341 338 339 342 342 339 338 336 336 335 335 340 339 340 336 338 332 333 328 324 323 322 322 321 321 318 318 318 320 320 319 320 319 318 319 319 318 315 315 315 316 318
347 351 352 352 353 353 352 352 353 354 355 354 354 354 353 353 353 352 353 354 360 356 355 351 349 348 344 344 344 342 342 337 339 338 336 338 338 337 337 340 334 334 337 337 337 333 333 332 329 326 324 325 325 322 320 319 319 319 316 315 318 319 320 320 318 318 318 317 318 316 313 312 313 316
349 350 352 353 354 354 353 354 355 355 355 355 355 355 354 353 354 356 358 362 359 351 351 349 347 345 342 342 342 337 337 333 336 339 336 337 338 339 338 337 334 334 333 337 335 331 332 330 327 326 323 321 319 318 320 319 314 315 318 316 317 318 318 319 317 316 317 316 315 315 314 313 312 315
352 352 351 352 355 356 355 355 355 355 356 355 356 357 355 355 358 364 357 355 355 350 346 347 341 340 342 339 337 333 332 333 335 337 334 339 337 338 338 335 337 334 338 342 333 330 330 327 326 326 324 321 318 318 318 323 321 316 310 319 316 317 318 318 316 314 314 315 313 314 314 313 313 313
353 352 352 353 354 356 356 356 355 356 358 357 356 357 356 356 357 351 349 348 348 344 343 341 338 337 337 335 335 338 335 334 332 334 334 338 336 334 336 336 335 333 335 336 333 328 327 325 326 327 325 322 320 321 323 321 318 316 312 306 317 316 316 317 316 315 315 314 314 314 314 314 315 315
353 354 355 355 356 357 358 359 358 358 358 359 359 359 354 349 350 349 344 341 341 339 334 334 336 332 336 337 335 336 334 334 332 335 334 329 329 332 330 332 335 337 335 332 331 325 324 324 327 328 326 326 328 330 331 330 323 319 317 310 305 314 315 316 315 316 315 316 317 313 312 314 312 315
352 354 356 357 359 360 359 360 361 359 358 360 361 344 350 347 346 344 342 341 336 334 335 337 335 337 338 340 336 334 334 333 332 334 330 325 325 326 324 325 334 333 331 331 332 327 323 327 333 327 331 330 328 331 329 324 321 320 317 315 306 306 309 313 315 314 314 316 317 313 312 311 311 313
353 355 358 360 360 363 366 361 358 356 356 356 348 344 346 344 338 331 335 333 334 335 336 333 333 333 335 335 333 332 332 331 332 331 328 325 322 325 324 328 329 331 335 331 329 325 328 332 331 330 332 333 327 320 316 316 316 319 320 317 317 308 307 307 308 311 315 313 314 312 312 312 312 310
355 356 358 358 351 351 352 351 350 349 346 344 342 342 339 337 335 336 336 334 334 334 338 335 334 334 337 334 333 331 332 330 332 332 332 331 331 328 326 327 330 330 331 333 334 332 329 330 327 328 331 325 323 321 317 317 319 322 321 318 317 316 317 310 307 308 309 310 311 312 314 312 311 308
361 359 348 346 345 344 344 344 342 343 341 340 339 339 337 335 336 336 336 335 335 336 340 335 333 329 333 334 336 332 335 333 332 332 329 329 332 332 330 330 330 332 332 331 335 332 333 328 329 327 325 325 321 319 315 316 317 317 317 318 320 319 316 317 318 311 311 311 310 309 310 311 312 312
341 342 343 343 341 339 338 339 339 339 339 338 335 334 334 334 334 336 335 334 331 331 335 333 335 336 336 335 334 331 333 322 333 336 337 334 333 329 328 329 332 330 329 332 330 329 330 331 331 332 326 325 325 322 323 320 319 318 318 318 318 319 318 315 314 312 314 315 310 309 309 311 311 310
Wind_Speed
5 3 5 5 4 3 4 3 4 3 4 4 4 2 1 2 1 1 2 3 3 4 7 1 3 5 4 5 4 5 5 4 6 6 7 7 5 12 18 18 17 17 18 18 19 19 20 21 22 23 23 24 24 24 24 24 24 24 23 22 22 21 21 20 20 20 20 20 20 19 19 19 19 21
3 4 2 4 4 3 3 2 3 1 2 1 0 2 1 2 2 2 1 3 2 4 5 4 1 1 6 3 4 3 5 8 8 6 7 7 7 10 15 16 17 17 18 18 19 20 21 22 23 23 24 24 24 25 25 24 24 23 23 22 22 21 22 21 20 21 21 21 21 20 20 20 20 19
3 3 3 2 2 2 2 2 2 2 4 2 2 2 2 3 3 2 2 2 3 2 4 4 2 2 3 4 5 5 5 8 10 7 6 7 9 11 10 15 17 18 19 20 20 21 22 22 23 23 23 23 23 23 23 23 23 23 22 22 22 21 22 22 22 22 22 21 21 21 21 21 21 20
4 4 4 3 2 2 2 2 3 3 2 2 4 4 2 2 2 2 2 4 7 3 4 6 7 6 3 7 5 4 4 6 12 6 6 5 8 7 6 11 16 18 19 19 20 21 21 22 22 22 22 22 22 22 22 22 23 22 22 21 21 21 22 22 22 22 22 22 22 22 22 22 22 21
4 4 4 3 3 3 3 3 3 3 3 4 3 3 3 3 3 3 3 5 6 5 4 5 6 6 6 5 3 3 3 3 4 7 6 6 6 6 7 7 12 16 18 19 20 21 20 21 21 21 21 22 22 23 23 23 23 23 22 22 21 21 21 22 22 22 23 22 22 22 22 22 22 21
5 3 3 3 4 3 5 4 5 4 4 4 5 5 5 5 4 5 5 5 6 8 3 5 4 5 5 5 4 5 5 5 4 4 5 6 7 7 7 7 7 13 16 18 19 20 20 20 21 21 22 22 22 22 23 23 23 22 22 22 21 21 21 22 22 23 22 22 21 21 22 22 22 21
6 5 4 5 4 5 5 5 5 5 4 4 4 5 6 6 5 4 5 5 6 7 7 4 5 4 4 5 5 5 5 5 5 5 6 6 5 5 5 5 6 11 14 16 18 19 20 21 21 21 21 22 22 22 22 22 22 22 22 21 21 22 22 22 23 23 23 22 22 22 22 22 22 21
7 7 6 6 6 6 5 5 5 5 5 4 4 4 3 3 5 5 4 6 5 5 7 5 5 5 5 6 6 5 5 5 5 4 4 4 5 6 6 6 7 9 12 14 15 18 20 21 20 20 20 20 20 20 20 20 21 21 21 21 21 21 22 22 22 23 23 22 22 22 22 22 22 22
7 7 7 7 7 5 5 5 5 5 5 5 4 4 4 5 4 3 3 4 4 5 7 6 4 5 5 5 6 4 5 5 5 4 5 6 7 6 6 6 8 11 17 17 18 17 18 18 19 19 19 19 20 19 19 19 19 21 21 21 21 22 22 22 21 22 22 21 21 21 22 22 23 22
7 8 8 8 7 7 7 6 5 5 7 6 6 5 5 4 4 5 5 5 6 6 7 6 6 5 6 6 5 4 5 5 5 4 5 4 5 5 6 6 7 7 7 6 6 8 11 14 18 20 19 19 20 19 18 19 20 21 21 21 21 21 21 21 21 21 20 20 20 20 21 21 22 22
9 9 8 7 8 7 7 7 7 6 6 6 6 6 6 5 4 4 4 5 6 6 6 6 6 7 6 6 8 5 5 6 5 5 5 5 5 6 6 6 5 6 8 9 11 12 14 17 14 13 14 15 16 16 17 19 20 20 21 22 21 19 19 20 20 20 19 19 19 20 20 21 21 22
10 10 10 10 9 9 7 7 6 6 6 6 6 6 5 5 5 5 5 5 5 6 6 7 7 6 6 5 5 4 4 5 4 5 6 7 4 4 3 4 6 4 5 7 8 10 11 9 10 12 12 13 14 15 15 17 19 20 21 21 21 19 19 19 19 19 19 19 19 19 19 19 20 21
9 9 10 10 11 9 13 13 11 9 8 5 6 6 5 5 6 5 6 6 6 6 6 7 5 6 6 6 6 6 6 6 8 5 5 6 5 3 2 2 3 6 8 7 7 7 6 8 8 9 9 9 11 12 13 11 16 17 17 18 19 20 20 20 20 19 18 18 18 18 18 19 19 19
10 11 11 10 14 15 17 17 16 15 14 12 9 5 5 7 6 6 6 6 6 6 7 7 6 6 7 6 5 5 4 3 3 4 3 2 3 3 4 4 4 5 7 6 5 6 7 9 11 9 10 8 8 7 8 8 9 8 12 15 16 17 18 19 19 19 19 17 17 18 18 18 18 18
9 9 10 9 9 8 9 13 17 17 16 16 15 14 10 6 4 5 7 6 6 7 7 7 7 7 7 7 6 5 4 4 3 2 2 4 4 5 6 8 4 2 4 5 6 7 8 8 10 10 8 9 8 8 7 11 14 15 13 9 11 14 16 17 18 19 18 17 17 17 17 17 17 17
9 9 9 9 9 7 7 6 10 14 16 16 16 16 15 14 12 8 6 5 5 5 6 7 8 7 7 5 4 4 4 3 4 4 4 4 5 5 5 5 6 3 7 9 10 10 7 6 7 9 8 8 8 7 11 13 14 15 16 16 15 13 14 15 16 17 18 17 16 16 16 16 16 16
9 8 8 8 6 7 12 11 8 9 11 15 17 17 16 15 14 15 13 10 9 6 7 8 9 9 6 6 4 3 3 3 5 5 5 5 4 4 5 5 5 6 6 9 9 9 6 4 6 8 8 6 5 9 11 14 14 16 17 16 16 16 15 14 14 16 17 16 15 14 14 14 14 15
10 9 8 8 8 7 5 5 8 8 9 9 9 9 8 8 13 13 14 15 15 12 10 10 11 11 6 8 4 3 4 6 7 6 7 5 4 4 6 5 7 7 7 8 8 8 6 5 5 7 5 6 7 7 10 15 17 13 11 12 12 14 14 14 13 13 13 13 13 12 11 12 13 13
10 9 9 9 9 7 7 7 6 7 8 8 8 9 10 10 10 9 10 9 9 10 8 10 11 12 10 10 10 9 7 8 9 8 5 2 3 5 6 7 6 7 7 8 4 4 3 3 3 3 5 7 9 8 11 17 12 17 19 18 18 18 17 14 14 13 12 11 11 11 12 13 12 11
8 9 9 8 9 8 8 10 13 11 7 7 8 8 8 8 8 9 10 13 12 11 9 10 11 11 12 12 11 9 7 5 2 2 2 2 4 6 6 7 6 6 5 2 6 6 5 3 5 4 5 7 8 9 8 10 16 18 17 17 17 18 15 12 12 13 13 12 12 11 11 9 7 9
4 6 8 8 8 9 9 11 12 13 11 7 8 8 8 7 7 8 8 15 18 17 17 16 16 16 15 17 12 6 1 3 1 1 4 7 6 5 6 6 6 6 4 5 6 4 6 5 6 8 4 4 8 8 6 6 13 15 13 15 17 16 12 14 16 15 15 14 14 10 7 4 7 9
6 6 10 9 8 9 9 11 13 13 11 8 9 8 8 8 9 8 7 4 7 16 17 17 17 17 14 5 1 3 4 4 4 4 9 8 4 5 5 5 5 4 3 4 6 3 4 6 5 8 7 4 3 5 4 7 8 11 13 15 15 16 18 19 19 17 14 13 13 8 2 4 6 5
9 9 10 13 12 10 11 12 11 14 12 9 9 9 8 9 10 8 4 6 7 3 4 6 8 8 9 7 5 7 13 13 11 8 9 6 5 5 5 5 5 4 0 4 5 4 3 6 4 5 7 7 4 1 5 6 6 8 7 8 11 15 17 20 20 18 17 12 10 5 3 7 7 3
9 10 10 12 16 18 16 15 14 13 15 11 9 8 9 9 10 7 6 8 7 6 5 6 8 10 6 6 8 7 8 9 10 10 9 8 7 6 6 5 3 2 1 2 2 3 1 3 5 3 3 6 7 7 6 7 8 7 7 10 9 12 16 17 15 20 21 17 8 3 6 8 8 4
10 9 10 10 13 18 19 18 16 13 15 14 9 9 9 9 3 3 2 2 3 2 3 4 3 2 6 6 7 7 8 8 8 8 10 8 6 2 1 0 1 2 2 3 8 4 2 3 5 4 3 3 6 8 7 7 6 6 7 8 8 10 10 11 10 11 13 16 5 3 5 8 11 5
10 10 9 10 12 17 18 18 16 15 13 14 9 10 11 7 7 4 1 1 2 3 3 4 4 4 3 3 3 2 2 4 3 5 3 4 4 2 2 1 0 1 1 3 7 2 3 2 2 5 5 5 7 6 8 7 5 6 7 6 8 9 9 10 10 10 11 11 10 6 4 3 7 8
10 9 9 8 13 16 17 18 18 18 18 11 11 15 13 8 6 4 4 4 4 4 4 4 5 4 4 3 3 4 5 1 2 2 2 3 2 3 2 1 1 1 0 1 1 2 2 2 2 3 4 4 6 6 6 7 7 7 7 8 9 8 9 9 10 10 11 11 11 4 6 4 0 5
8 9 9 8 11 15 17 18 18 19 18 13 16 15 14 10 6 4 5 6 7 7 7 7 7 7 6 6 5 5 4 4 3 3 2 3 2 2 2 1 1 0 1 2 3 3 1 2 3 2 3 3 5 6 7 5 7 7 9 8 7 8 8 8 9 9 10 10 11 12 7 2 2 1
4 4 5 3 2 10 14 17 17 15 16 19 17 15 14 10 5 5 6 7 7 8 9 8 8 8 7 7 7 3 5 4 4 3 3 2 3 4 2 1 2 2 2 4 4 2 4 3 2 2 2 2 3 4 4 7 7 7 8 9 8 9 8 8 9 10 11 11 11 9 10 6 4 2
8 8 7 8 7 5 3 3 3 6 9 15 16 13 9 6 6 6 7 7 9 9 8 8 8 7 6 7 4 6 5 5 5 4 3 1 2 2 1 0 2 2 5 5 3 6 3 3 1 1 3 3 2 3 4 5 6 7 7 7 7 6 5 8 9 9 9 10 8 8 7 6 4 3
4 4 4 3 4 4 8 5 5 5 5 5 3 4 5 6 7 8 8 8 9 9 9 8 8 7 5 4 6 6 6 5 5 4 4 2 1 1 2 1 2 4 3 2 5 5 4 3 1 1 3 2 2 3 3 3 4 7 7 6 7 8 8 8 9 9 10 10 7 6 7 7 6 6
7 5 5 6 5 5 4 4 5 6 5 6 6 6 7 7 8 9 11 10 8 8 8 7 7 5 5 6 5 5 5 5 5 5 4 3 2 1 0 1 4 4 3 2 5 4 4 3 3 3 1 3 2 1 3 2 4 5 7 6 6 5 6 9 8 9 10 10 7 6 7 8 8 8
9 8 6 6 6 6 6 6 6 7 7 7 8 9 8 8 9 9 8 10 10 9 8 9 7 6 5 5 5 5 5 5 5 5 5 3 1 2 2 4 5 3 2 0 3 3 1 2 3 2 6 4 4 2 3 3 4 5 6 7 6 6 7 7 7 8 9 8 8 6 6 6 7 7
9 10 10 10 9 8 8 8 8 9 9 9 9 10 10 9 9 9 10 10 10 9 9 8 8 7 6 5 5 5 5 5 5 6 6 4 4 3 4 5 3 4 2 2 2 1 0 1 3 7 6 7 6 7 5 3 4 5 6 6 5 6 6 6 6 8 7 7 8 7 6 6 7 7
11 9 10 10 10 10 10 10 10 10 10 9 9 9 8 8 9 8 9 10 9 8 8 8 7 6 5 5 5 5 4 5 5 5 4 4 4 5 6 6 4 3 2 2 2 2 0 1 2 3 4 3 2 2 5 3 1 5 5 5 4 5 6 5 5 7 7 6 6 6 5 6 7 8
10 10 10 9 10 10 11 11 9 10 10 9 9 8 8 8 8 9 8 6 7 6 7 7 6 5 4 3 3 4 2 4 4 5 3 4 5 6 6 2 5 4 1 2 3 3 1 3 3 2 3 2 3 2 2 5 5 4 6 6 5 5 6 4 4 4 7 7 8 7 7 8 8 8
10 9 10 10 9 10 11 11 10 9 10 9 8 8 8 7 6 6 5 2 5 6 6 6 5 4 4 2 1 3 4 4 1 3 5 5 4 3 2 3 4 3 3 3 4 5 2 4 3 3 2 3 2 2 1 3 5 8 3 5 5 5 6 5 5 6 5 6 7 8 7 7 7 7
8 8 10 10 10 10 10 10 9 9 8 8 8 5 6 6 4 2 3 4 3 3 3 3 3 2 2 4 7 6 5 1 3 1 3 2 3 3 1 2 3 3 1 1 5 5 6 5 3 2 2 2 3 3 2 1 2 5 7 2 5 4 6 6 5 6 5 4 5 5 5 5 5 5
8 9 9 10 9 9 9 9 9 8 7 6 7 5 5 5 3 5 4 4 6 7 6 7 7 6 8 6 3 1 3 3 2 5 5 2 0 1 1 1 2 3 1 1 5 6 6 5 2 1 1 1 2 2 2 0 2 2 5 7 5 4 5 5 5 4 4 4 3 3 2 1 1 3
8 7 8 8 8 8 8 7 8 8 7 5 4 4 5 5 5 5 6 6 7 8 8 8 7 7 6 4 1 1 4 9 9 6 3 3 3 1 1 1 1 1 2 3 3 6 5 5 3 2 2 4 4 2 0 3 6 3 1 6 8 7 4 4 5 5 4 4 2 2 3 1 3 1
8 7 8 7 6 7 7 7 7 6 7 5 3 7 7 6 7 4 5 6 8 9 8 7 7 6 5 3 2 2 4 2 3 2 4 6 3 3 3 3 2 2 3 1 2 5 5 5 4 7 5 3 4 2 3 0 3 3 2 0 1 3 9 8 4 3 1 4 3 4 2 2 1 1
8 7 5 7 8 4 2 3 5 5 4 6 8 7 6 6 7 9 10 12 10 9 8 7 6 5 4 6 6 2 6 6 6 3 4 5 6 4 6 5 4 5 3 1 3 6 6 5 4 3 3 4 4 3 3 1 2 3 4 3 3 4 7 11 9 8 4 3 3 3 2 0 1 2
6 8 6 2 6 6 5 5 6 5 6 7 7 7 7 7 7 8 6 9 9 7 4 5 5 4 1 4 7 9 6 5 2 2 1 1 2 6 6 5 4 2 1 1 3 5 6 6 5 4 4 4 3 4 5 5 3 6 6 6 6 5 4 6 9 10 10 10 10 6 4 2 1 2
2 3 6 6 6 7 6 6 6 6 7 8 7 7 6 6 6 7 7 8 6 5 3 4 5 6 5 4 1 3 3 2 4 4 4 5 3 0 0 0 1 2 3 1 1 1 3 5 6 6 5 4 6 5 6 5 4 5 6 4 3 6 5 4 3 2 3 5 7 9 7 7 6 8
7 7 7 7 7 7 7 7 7 6 6 7 8 9 8 8 7 6 6 7 8 7 6 4 3 4 5 4 5 5 3 2 2 2 1 2 3 4 5 3 2 2 3 3 2 4 3 3 3 4 5 6 4 4 5 6 5 4 5 5 5 6 6 5 5 5 5 4 1 2 7 7 7 7
Wind_Direction
258 221 211 197 226 274 306 331 330 47 56 31 29 79 149 138 112 319 314 303 291 325 336 346 175 166 171 183 217 206 221 218 182 194 207 214 209 210 217 221 225 226 227 230 232 234 235 236 237 238 238 238 238 237 238 238 238 238 238 239 239 240 240 239 238 238 237 236 234 232 232 233 233 235
233 263 254 197 204 209 238 246 269 300 98 82 357 287 209 140 159 198 248 290 306 304 301 292 191 221 188 186 214 229 205 213 195 202 207 215 224 217 211 223 229 231 232 233 235 235 236 237 238 239 240 240 240 240 241 241 241 242 242 242 242 242 242 242 241 240 238 236 235 233 232 232 232 232
246 246 248 248 206 219 237 273 247 211 143 169 229 248 210 172 179 202 220 270 277 252 275 291 358 195 216 212 212 227 212 210 204 210 211 219 223 230 219 221 227 230 232 233 235 235 236 237 239 240 242 244 245 246 247 248 248 248 247 247 246 245 244 243 242 241 240 238 236 234 233 232 232 231
214 215 228 225 225 237 266 244 253 270 171 184 194 217 235 216 200 183 220 234 265 291 301 310 311 307 240 226 247 242 232 207 203 217 227 226 230 234 238 221 224 232 235 238 239 240 241 242 243 245 246 248 249 251 252 252 253 253 253 251 250 249 247 246 245 243 242 240 237 235 233 233 232 230
216 208 212 217 204 206 221 232 250 247 220 200 216 219 211 208 197 194 213 243 265 275 259 269 281 296 313 297 245 266 258 256 213 219 227 226 227 232 238 245 231 229 235 239 241 243 245 247 248 249 249 250 251 252 253 253 254 254 254 254 253 252 251 250 249 248 246 243 241 238 236 234 233 231
245 222 207 227 227 198 212 230 230 230 248 214 200 196 212 221 219 194 200 222 242 268 269 274 266 264 246 262 262 262 266 263 249 226 228 232 234 239 247 246 254 245 237 240 244 246 247 249 249 249 250 251 252 253 254 255 256 255 255 254 252 251 250 250 250 250 250 248 246 243 241 239 237 234
216 227 222 222 221 224 217 211 232 249 245 252 245 209 198 209 216 209 199 207 237 256 264 255 276 270 265 246 266 256 249 246 235 244 251 253 251 242 233 240 250 251 246 240 242 245 248 250 250 250 251 252 252 253 254 255 256 256 255 254 253 251 250 249 248 248 248 247 246 245 243 241 239 237
213 211 212 223 222 216 220 216 215 221 240 255 252 268 261 205 209 209 212 208 221 236 261 251 251 271 280 279 282 293 285 278 271 253 259 256 257 262 262 267 271 274 274 262 247 245 248 249 251 252 254 255 255 256 256 256 256 256 255 254 254 253 251 250 249 248 248 246 245 243 242 241 239 236
212 216 218 215 219 225 220 215 215 221 234 228 238 242 234 237 239 239 225 239 233 245 252 264 252 257 262 264 266 254 267 265 262 269 269 274 274 273 271 273 277 273 262 259 259 255 251 251 253 255 256 256 256 256 256 257 258 258 256 254 253 251 250 250 250 249 248 247 245 243 242 241 240 237
218 220 217 220 213 215 219 223 220 218 223 225 227 235 242 232 220 220 228 227 241 250 257 264 277 266 272 278 259 247 236 247 258 254 248 248 252 254 255 247 261 288 301 306 283 263 256 251 248 251 251 252 253 256 257 258 257 256 258 257 254 254 253 252 251 250 248 247 245 244 242 241 240 239
217 222 223 218 218 218 214 214 218 218 219 225 231 228 226 233 239 240 231 229 237 239 252 256 253 264 256 252 270 252 231 235 229 245 262 257 244 247 247 261 257 275 282 281 283 281 278 279 278 265 260 258 259 259 257 257 259 257 256 257 257 254 253 253 252 251 249 246 244 242 240 240 240 238
223 217 220 225 220 219 218 218 219 216 222 212 223 226 230 228 226 233 239 247 243 245 250 250 257 253 262 262 262 276 273 268 262 240 246 259 250 235 236 253 274 279 288 291 293 290 287 281 274 278 275 273 267 257 256 256 254 255 256 257 260 260 257 254 252 250 247 244 243 241 239 237 238 238
222 227 223 218 223 210 210 211 213 221 222 224 220 221 219 224 225 226 231 238 245 255 259 267 266 269 268 265 271 274 262 252 251 243 230 250 260 270 268 265 277 283 284 283 291 298 315 310 300 303 311 310 307 295 282 267 255 251 253 256 257 257 258 258 257 254 250 243 240 240 239 237 236 236
217 222 231 233 222 215 204 203 207 213 219 220 228 225 207 215 220 227 233 232 235 243 253 257 260 260 260 260 255 261 257 261 266 264 279 309 329 322 294 271 263 275 279 296 317 321 318 309 304 304 302 304 298 295 294 291 288 270 248 248 252 255 258 259 258 256 254 247 239 237 236 236 235 234
222 223 222 230 243 240 212 204 205 209 214 219 226 234 235 223 215 231 227 230 231 239 246 252 252 254 259 258 258 258 277 273 282 327 357 319 322 318 318 308 291 264 356 328 314 302 295 298 298 301 296 295 292 290 286 298 314 322 325 294 266 261 259 259 258 257 254 249 242 237 234 234 233 231
220 226 229 226 227 221 221 196 204 213 216 218 223 228 233 237 237 224 221 235 245 245 255 254 253 259 257 268 274 284 296 335 346 335 334 316 305 299 295 294 297 323 355 322 306 294 286 279 284 294 295 295 290 305 328 336 339 337 331 331 327 312 292 280 273 268 263 255 245 238 234 232 230 228
219 219 225 238 237 232 208 205 196 200 215 221 222 224 230 238 238 239 234 227 229 244 256 265 267 261 274 282 281 317 327 346 310 304 295 295 297 307 302 287 299 310 310 294 287 283 285 286 287 286 290 293 322 329 325 326 333 330 349 353 348 343 333 314 297 285 279 275 267 252 242 234 229 227
219 217 219 222 231 237 236 211 203 198 209 210 217 221 225 232 242 242 244 244 241 235 239 249 254 257 261 264 265 285 310 294 286 292 285 290 297 295 286 303 293 290 280 268 278 285 285 266 273 286 307 328 321 319 325 330 329 357 356 354 356 352 345 334 321 309 298 290 282 273 258 244 235 230
212 217 218 221 226 227 229 226 212 200 200 202 208 217 225 230 237 237 233 223 219 232 222 232 244 255 256 260 260 260 260 261 258 251 255 277 289 289 296 286 279 278 263 261 256 271 298 272 288 302 325 331 325 325 328 320 342 359 359 357 355 347 342 340 336 331 323 305 284 267 253 241 232 225
209 211 214 218 224 229 230 222 214 214 210 210 214 210 214 222 230 234 230 227 222 222 219 224 232 238 237 237 240 240 244 246 279 337 319 303 281 293 294 294 297 284 277 337 350 315 312 339 339 324 333 328 316 321 316 329 357 352 347 345 340 332 342 345 340 331 320 307 293 279 265 256 232 214
228 215 213 214 221 226 230 227 210 213 207 223 225 226 227 226 229 231 228 218 221 219 218 219 220 229 233 234 241 254 264 249 340 340 302 270 268 278 286 283 293 295 336 26 13 331 321 347 343 326 332 332 310 308 323 346 343 331 331 330 324 325 341 342 339 326 317 307 303 309 310 251 202 208
254 250 236 226 225 228 230 222 209 202 198 218 225 230 233 236 241 245 249 260 227 225 226 224 225 226 238 259 231 237 261 204 176 209 250 257 262 251 253 277 275 306 325 37 322 356 325 346 350 327 323 304 273 313 333 335 322 330 331 325 335 343 343 341 334 325 313 302 295 321 308 173 168 170
235 239 241 236 232 232 234 229 209 200 194 213 218 225 234 240 244 248 255 249 256 218 206 245 246 254 238 218 220 234 234 236 231 223 242 255 251 259 255 270 287 293 157 4 337 14 331 352 351 342 326 321 305 304 329 319 340 332 331 351 343 338 345 341 332 325 326 306 288 308 191 167 163 176
219 226 231 228 226 229 232 229 214 202 199 208 217 217 227 235 241 242 236 240 241 254 242 226 214 227 214 195 206 219 226 231 230 223 222 229 232 239 248 253 263 281 322 91 338 68 304 25 320 340 326 323 323 339 342 343 336 331 350 342 334 348 349 337 334 335 331 326 293 247 194 173 180 169
220 219 222 230 219 219 225 226 220 207 205 212 216 216 221 229 196 84 266 273 338 340 311 311 301 179 184 188 195 202 209 211 218 215 211 216 211 237 241 42 353 285 356 56 34 68 356 331 303 326 325 321 308 322 333 325 322 331 343 335 347 350 346 343 332 327 319 333 337 256 208 187 193 193
226 226 218 220 219 212 217 221 220 216 209 211 217 225 222 205 137 219 173 278 281 281 280 274 262 250 240 229 257 283 325 302 335 343 117 145 114 136 124 140 126 267 300 50 57 19 318 289 314 339 335 341 322 325 319 321 321 341 335 356 358 348 350 336 332 337 348 350 354 5 336 219 205 225
224 225 229 228 216 206 208 213 215 214 216 207 216 223 226 217 189 186 231 235 243 251 265 270 266 261 257 246 230 230 234 200 83 73 82 111 144 114 161 85 55 230 262 14 328 279 233 264 33 18 345 335 313 315 313 326 332 340 337 356 350 353 344 338 345 346 347 344 337 1 74 58 265 265
222 232 231 230 222 200 202 207 210 213 212 213 219 222 226 230 233 241 241 244 242 245 246 242 242 241 226 228 223 227 152 141 138 121 132 114 118 112 86 171 221 93 358 311 282 256 246 58 24 36 349 312 310 321 324 324 322 338 344 345 343 347 336 341 346 346 348 343 337 329 315 89 42 14
221 100 98 90 197 207 207 206 207 211 213 216 220 219 222 222 219 214 225 232 233 234 233 233 234 231 223 221 229 168 143 140 144 151 133 150 163 195 175 65 30 293 281 263 234 140 84 70 38 353 318 298 306 309 340 327 328 341 347 340 341 342 335 352 353 351 347 343 336 354 4 33 31 12
136 153 116 106 105 120 150 190 196 199 207 211 214 214 205 195 207 208 211 216 220 227 225 225 223 222 221 226 182 143 143 153 152 145 139 131 25 18 67 131 242 242 244 211 121 86 86 91 56 302 287 275 297 7 351 328 336 338 342 350 335 307 341 354 357 348 350 339 350 6 357 10 16 336
185 156 203 148 139 112 160 191 202 209 184 163 163 198 202 208 209 207 212 213 214 219 219 219 219 218 217 121 136 152 147 151 166 162 137 104 56 215 154 148 255 265 211 120 98 115 109 117 195 241 262 289 38 38 322 328 341 339 344 349 346 345 341 355 354 352 348 336 342 2 357 356 357 352
209 191 116 150 137 135 155 197 193 198 170 182 175 189 195 207 213 217 216 218 223 218 215 223 210 199 142 171 161 160 160 161 161 140 125 132 188 230 111 150 245 223 125 130 119 132 135 167 191 228 77 80 89 344 313 4 12 349 344 348 341 338 355 356 357 354 345 334 337 2 6 360 357 353
224 224 193 197 200 196 195 205 206 203 193 196 197 195 196 202 209 213 212 216 217 217 209 210 198 162 177 176 165 170 164 176 145 123 114 123 155 223 239 236 234 130 96 185 137 128 155 158 200 102 93 84 72 22 347 350 20 8 359 348 344 355 1 3 2 351 340 342 344 349 1 3 356 351
209 212 223 221 217 220 222 220 216 213 211 204 200 208 208 206 204 204 211 216 216 211 208 201 198 187 177 172 176 174 174 147 134 137 144 165 182 202 222 235 204 123 159 198 140 150 276 197 93 88 90 80 53 40 7 349 5 5 6 348 351 359 358 3 9 354 351 355 339 341 359 4 0 358
209 211 218 221 222 224 229 230 226 223 221 222 221 215 206 211 221 216 209 206 213 208 197 195 193 196 182 173 175 176 183 153 142 144 161 170 184 203 223 228 139 126 184 181 152 165 142 121 76 123 121 87 62 33 29 14 330 14 7 11 354 1 355 13 7 1 352 356 354 359 359 7 11 6
205 216 215 217 220 222 227 229 229 228 229 226 225 218 214 217 216 218 230 214 192 182 179 179 186 186 170 165 172 181 176 134 138 143 180 206 205 217 229 172 123 133 188 199 152 122 98 80 56 13 313 218 202 165 142 352 352 32 28 5 1 6 355 355 20 3 3 6 5 4 12 15 10 7
202 212 215 220 219 218 224 225 229 228 230 233 228 214 208 217 222 219 204 150 143 165 169 175 169 162 133 186 128 85 67 73 4 170 192 214 207 211 229 150 136 147 208 185 143 121 98 89 37 11 333 341 354 357 99 202 33 39 31 33 10 18 354 346 11 9 22 16 12 11 15 13 11 12
206 206 217 221 223 220 222 225 229 232 225 222 242 225 202 203 219 177 118 155 144 129 123 124 106 92 97 59 58 47 59 23 319 31 292 242 220 210 210 118 137 140 181 185 129 117 107 89 59 43 352 15 337 355 355 128 116 23 337 12 53 4 8 352 6 14 360 35 43 26 14 30 31 25
205 209 214 222 223 227 224 222 228 239 236 219 222 208 186 189 127 92 82 73 66 58 41 40 31 46 53 71 67 111 132 103 293 219 223 209 269 160 279 190 150 139 208 209 131 122 108 101 105 94 22 327 321 332 334 152 89 135 330 346 84 57 29 4 349 358 355 358 92 111 82 119 134 80
216 224 224 224 230 229 236 228 223 228 241 235 216 166 134 119 110 96 96 80 78 77 68 53 50 70 58 74 107 199 193 186 198 201 217 141 164 86 33 2 284 148 208 235 130 120 109 124 149 180 231 247 253 251 182 114 100 156 180 22 38 96 91 53 24 352 345 323 292 59 63 51 35 333
225 229 235 238 241 234 236 237 229 218 214 210 112 72 63 71 83 78 114 113 107 95 94 101 119 127 148 137 97 345 286 276 261 170 122 123 142 171 202 206 185 234 245 239 158 113 127 162 194 213 210 226 267 242 97 25 145 173 111 123 327 114 118 111 97 60 36 323 359 67 50 36 4 42
227 237 242 238 246 266 333 24 29 25 38 68 95 111 122 123 118 117 105 103 104 116 130 139 135 136 162 168 148 195 254 221 237 198 159 164 181 180 194 219 210 213 177 192 122 134 162 167 189 226 205 177 175 107 120 114 170 178 146 165 186 217 153 128 129 136 133 85 38 22 345 317 136 80
205 225 231 54 53 51 47 54 62 70 75 65 68 90 99 99 106 102 104 107 114 117 96 119 147 102 106 173 175 201 212 198 188 137 153 250 214 178 203 221 227 110 59 272 160 156 170 176 179 198 186 150 202 181 156 204 188 163 165 166 187 185 184 157 161 155 148 146 142 148 152 158 356 14
238 110 89 87 70 67 63 66 72 73 90 91 78 67 70 86 87 89 96 101 99 79 70 150 149 172 203 222 162 179 249 201 167 178 196 201 208 265 211 214 197 184 178 207 127 212 201 188 195 193 191 185 193 182 175 222 204 181 171 188 153 157 173 182 190 222 159 131 141 152 164 161 171 194
55 57 65 69 77 70 66 65 64 73 83 98 110 111 112 112 116 117 125 124 126 159 201 150 114 121 171 192 212 210 121 103 187 186 182 198 202 198 228 246 255 174 193 183 206 223 219 229 225 189 187 221 200 206 207 182 210 194 165 171 192 189 167 166 175 199 215 204 321 139 120 104 94 67